sat.trackr.live / text

‹ back to catalog

STARLINK-2270

NORAD 48000 · 2021-024Z

PAYLOAD ACTIVE UNKNOWN

§ Identity

Operator
Country
US
Launch date
2021-03-24
Launch site
AFETR
Launch vehicle
Mass (kg)
RCS (m²)

Purposes: comms

External: N2YO · Heavens-Above · Gunter

§ Orbital elements

Epoch: 2026-09-19T23:16:23.288736Z

Period
92.84 min
Inclination
53.1239°
Eccentricity
0.0004424
Mean motion
15.51005010 rev/d
Perigee alt
410.8 km
Apogee alt
416.8 km
Semi-major
6,791.9 km
B*
9.8381e-4
RAAN
43.6784°
Arg perigee
323.5054°
Mean anomaly
36.5653°
Rev number
30,579

§ Raw data

STARLINK-22701 48000U 21024Z   26262.96971399  .00058095  00000+0  98381-3 0  99902 48000  53.1239  43.6784 0004424 323.5054  36.5653 15.51005010305795

JSON: /api/v1/satellites/48000 · /tle

For live sub-satellite position, see the globe view (requires WebGL).

§ Visibility from observer

Set your observer location to see the next 7 days of passes ≥ 10°. The values pass through the URL so the page stays shareable.

No JS? Fill the form by hand. The geolocation button needs JavaScript.